SCP
6 5 4 4 4 4 4 6 6 6 6 6 6 7 6 5 6 6 7 7 6 6 5 5 4 4 4 4 4 4 4 3 3 2 2 2 3 4 4 5 5 4 3
7 6 5 4 4 5 6 7 7 7 7 7 7 7 6 5 6 7 7 7 6 6 5 5 4 4 4 4 3 3 3 3 3 2 2 2 2 3 5 6 5 3 3
7 6 6 6 7 8 8 8 8 7 7 7 7 6 5 5 6 7 7 7 6 5 5 4 4 3 3 3 3 3 3 3 2 2 2 2 2 2 4 6 4 3 2
9 8 8 9 10 10 8 7 6 6 5 5 5 4 4 4 5 6 6 5 5 4 3 3 3 2 2 2 2 2 3 3 2 2 2 2 2 1 2 3 2 2 2
12 12 11 11 11 10 8 6 4 4 4 4 3 3 3 3 3 3 3 3 3 3 2 2 2 2 1 1 2 2 2 2 2 2 2 2 1 1 1 1 1 1 2
15 15 14 13 11 10 8 6 4 3 4 4 4 4 4 3 2 2 3 3 3 3 2 2 1 1 1 1 1 1 1 1 1 1 1 1 1 1 1 1 1 1 1
18 16 13 12 11 10 8 6 4 4 4 4 5 5 5 3 2 1 3 4 4 3 2 2 1 1 1 1 1 1 1 1 1 1 1 1 1 1 1 1 1 1 1
18 14 11 11 12 10 8 7 6 5 5 5 5 6 6 4 2 1 2 4 4 2 2 1 1 1 1 1 1 1 1 1 1 1 1 1 1 1 1 1 1 1 1
15 13 11 11 12 10 9 8 7 6 6 5 5 6 6 4 2 0 1 3 3 2 1 1 1 1 1 0 1 1 1 1 1 0 1 1 1 1 1 1 1 1 1
13 12 11 11 11 9 8 7 7 6 6 5 5 5 5 4 2 0 1 2 2 2 1 1 1 1 0 0 0 1 1 1 1 1 1 1 1 1 1 1 1 1 1
12 12 12 11 10 8 6 5 5 5 5 5 4 4 4 4 2 0 0 1 1 1 1 1 1 0 0 0 0 0 1 1 1 1 1 1 1 1 1 1 1 1 1
11 12 13 11 9 6 5 4 4 4 4 4 3 3 3 3 1 0 0 0 1 1 1 1 0 0 0 0 0 0 0 0 1 1 1 1 1 1 1 1 1 1 1
10 13 13 11 7 5 4 4 4 4 3 3 3 2 2 2 1 0 0 0 0 0 1 1 0 0 0 0 0 0 0 1 1 1 1 1 1 1 1 1 1 1 1
10 12 12 9 6 4 3 3 3 3 3 2 2 2 2 2 1 1 0 0 0 0 0 0 0 0 0 0 0 1 1 1 1 1 1 1 1 1 1 1 1 1 1
9 9 9 7 5 3 3 3 2 2 2 2 1 1 1 1 1 1 0 0 0 0 0 1 1 1 1 1 1 1 1 1 1 1 1 1 1 1 1 1 1 1 1
8 7 6 5 4 3 3 2 2 1 1 1 1 1 1 1 1 0 0 0 0 0 0 1 1 1 1 1 1 1 1 0 0 1 1 1 1 1 1 1 1 1 1
6 6 4 4 4 4 3 2 2 2 1 1 0 0 0 0 0 0 0 0 0 0 0 1 1 1 1 0 0 0 1 1 1 1 1 1 1 1 1 1 1 1 1
6 5 4 4 4 3 3 3 3 2 2 1 1 0 0 0 0 0 0 0 0 0 0 1 1 1 0 0 0 0 1 1 1 1 1 1 1 1 1 1 1 1 1
5 4 3 3 3 3 4 3 3 3 3 2 2 1 0 0 0 0 0 0 1 1 0 0 0 0 0 0 0 1 1 1 1 1 1 1 1 1 1 0 0 0 1
4 4 3 3 3 3 3 3 3 3 3 3 2 1 1 0 0 0 0 1 1 1 0 0 0 0 0 0 1 1 1 1 1 1 1 1 1 1 0 0 0 0 1
3 3 3 4 4 3 3 3 3 3 3 2 2 1 1 0 0 0 0 0 0 0 1 1 1 1 0 1 1 1 1 1 1 1 1 1 1 1 0 0 0 0 0
2 2 3 4 5 4 3 3 2 2 2 2 2 1 1 0 0 0 0 0 0 0 1 1 1 1 1 1 1 1 1 1 1 1 1 1 1 1 0 0 0 0 0
2 2 3 5 6 6 5 4 3 2 2 2 2 1 1 0 1 0 0 0 0 0 1 1 1 0 1 1 1 1 1 1 1 1 1 1 1 0 0 0 0 0 0
2 2 4 6 6 6 5 4 3 2 2 2 2 1 1 1 1 0 0 0 0 1 1 1 1 1 1 1 1 1 1 1 1 1 0 0 0 0 0 0 0 0 0
1 2 3 4 4 4 3 3 2 2 2 2 1 1 1 0 0 0 0 0 1 1 1 1 1 1 1 1 1 1 1 0 0 0 0 0 0 0 0 0 0 0 0
1 1 2 2 2 2 2 2 2 2 2 1 1 1 1 0 0 0 0 0 1 1 1 1 1 1 1 1 1 1 0 0 0 0 0 0 0 0 0 0 0 0 0
Wind_Speed
5 3 3 3 3 2 2 2 2 2 1 2 2 1 2 2 3 3 3 3 3 3 3 3 3 3 3 3 2 2 1 0 1 1 1 0 1 1 1 1 1 2 2
6 4 4 3 3 3 3 2 2 1 1 1 1 1 2 2 2 3 4 4 3 3 3 3 3 3 3 3 3 2 2 1 0 1 1 1 0 0 0 1 1 1 1
7 6 5 3 3 3 3 2 2 1 1 1 1 1 1 2 2 3 3 3 3 3 3 3 3 3 3 3 3 3 2 2 1 1 2 1 1 0 1 2 2 1 2
5 5 5 3 3 3 3 2 1 1 1 1 1 1 2 3 3 3 4 3 3 3 3 3 3 3 3 3 2 3 2 2 2 1 1 1 0 1 0 1 1 1 2
5 4 4 4 3 3 3 2 2 0 1 1 1 1 2 2 4 5 5 4 4 3 3 3 4 6 7 5 3 3 3 2 2 2 2 1 1 1 1 1 1 1 2
5 4 4 3 3 2 2 2 2 1 1 1 1 2 3 4 6 7 6 5 3 3 3 3 2 4 5 6 5 5 4 2 2 2 2 2 2 2 1 2 1 1 2
5 4 4 4 3 2 2 2 1 1 1 1 1 1 2 3 6 7 8 5 3 2 2 2 3 4 4 4 4 4 4 3 2 2 2 3 2 2 2 2 1 1 2
5 4 4 3 3 3 2 2 1 1 1 1 0 1 2 3 4 5 7 4 3 2 2 2 3 3 4 4 3 4 4 4 3 2 1 2 2 2 2 2 3 2 2
5 4 4 4 4 3 3 2 2 1 1 1 1 1 1 3 3 4 5 3 2 2 2 3 3 3 5 6 3 3 3 3 4 4 3 2 3 3 2 2 2 1 1
4 4 4 3 3 3 2 2 2 1 1 1 1 1 2 3 3 4 4 2 2 2 1 2 5 5 5 5 3 3 3 4 4 3 3 3 3 3 2 1 2 1 1
4 4 4 3 3 3 3 2 2 2 1 1 1 1 2 3 4 2 2 2 3 3 2 1 2 4 4 5 3 2 3 4 3 3 2 2 2 1 1 1 1 1 1
4 4 3 3 3 3 3 2 2 2 2 2 2 2 2 3 3 2 0 1 2 2 3 2 1 2 3 4 3 3 5 4 3 2 2 2 2 1 1 1 1 1 2
3 3 3 3 2 3 3 3 3 3 2 1 2 1 1 2 2 1 1 3 3 2 2 3 4 4 4 3 4 4 3 2 2 2 2 2 2 2 1 1 1 1 1
4 3 3 3 3 2 1 1 1 0 1 1 1 0 1 2 2 1 1 2 2 2 3 3 5 5 4 3 2 2 2 1 2 2 2 2 2 2 1 1 1 1 1
4 4 4 3 3 2 2 1 1 1 1 0 1 1 1 1 1 1 2 2 2 2 3 3 2 1 1 1 1 1 1 1 1 2 2 2 2 2 2 1 1 1 1
3 3 3 3 2 3 3 3 2 2 3 3 2 1 1 1 1 1 2 3 4 4 2 2 2 1 2 2 2 1 1 1 1 1 2 2 2 2 2 1 1 1 1
3 3 2 3 3 3 2 3 3 2 2 3 4 3 3 2 3 3 3 4 6 4 2 2 1 1 2 2 1 2 2 1 1 2 2 2 2 2 1 1 1 1 1
3 3 3 2 3 3 2 2 2 3 3 3 4 6 6 5 5 5 3 2 2 2 1 1 1 1 1 2 2 2 2 2 2 2 2 2 2 2 2 1 1 1 1
3 2 1 1 1 2 2 3 2 2 1 2 2 3 5 5 5 5 3 2 2 1 1 2 2 2 2 2 2 2 2 2 2 2 2 3 3 2 2 2 1 2 1
1 1 1 2 2 2 3 3 2 2 2 2 1 2 2 2 2 2 3 2 2 1 1 1 1 2 2 2 2 2 2 2 3 3 3 3 3 3 3 2 2 1 1
2 2 2 3 3 2 2 2 1 1 2 1 1 3 3 2 2 2 1 1 1 1 1 2 2 2 2 1 1 2 3 3 3 3 3 3 4 3 3 2 2 2 2
2 2 3 3 2 1 2 2 2 2 2 1 1 3 4 2 1 0 0 0 0 0 0 1 1 1 1 1 2 2 3 3 3 4 3 3 3 4 4 3 2 2 2
3 3 2 2 1 1 2 2 2 1 1 1 0 1 2 1 1 0 1 1 1 1 1 1 2 2 2 2 2 3 3 3 3 3 3 3 3 3 3 3 3 3 2
3 2 2 1 1 2 2 2 2 1 1 1 1 0 1 1 0 1 1 1 1 0 1 1 1 2 3 3 3 3 3 3 3 3 3 3 3 3 2 2 2 2 2
2 2 2 2 2 2 2 2 1 1 1 1 0 0 0 0 0 1 1 1 1 1 1 1 1 2 3 4 3 3 3 2 2 3 3 2 2 2 2 2 2 2 2
2 2 2 1 2 1 1 1 1 2 1 1 0 0 0 0 0 0 1 1 1 1 1 1 2 2 3 3 3 3 2 2 1 2 3 2 2 2 2 2 2 2 2
Wind_Direction
149 145 133 145 143 136 119 93 84 69 57 50 46 24 13 4 358 355 342 355 349 340 338 354 348 349 347 341 345 336 350 16 249 304 347 39 47 62 128 173 184 170 169
155 151 156 153 151 149 127 116 115 116 97 78 60 31 18 26 9 358 343 346 347 345 347 349 349 355 359 350 344 343 347 340 279 282 290 296 317 183 166 228 240 188 170
159 161 159 159 151 139 132 132 125 119 109 88 74 33 25 34 16 0 345 336 341 346 353 356 0 8 0 353 343 352 350 355 337 289 293 291 259 293 347 306 313 306 252
154 157 153 161 152 146 140 135 129 132 118 56 50 24 27 47 25 6 350 338 350 355 1 8 12 16 7 345 353 2 349 344 323 308 297 306 308 312 317 300 306 310 299
146 150 154 152 147 145 143 135 124 108 85 56 39 33 33 47 26 16 346 348 349 346 2 11 25 39 35 19 9 357 348 339 328 327 319 327 335 336 314 300 291 286 285
152 154 145 146 148 145 139 128 132 117 78 63 38 41 31 35 30 22 3 340 339 348 0 4 17 39 27 20 20 8 354 338 339 334 326 330 328 325 330 307 310 303 288
150 146 149 156 150 147 157 141 146 126 101 84 55 59 73 52 29 21 3 333 336 5 11 351 347 28 30 15 3 358 347 332 305 295 309 311 308 326 330 311 303 314 294
150 150 150 155 153 152 151 152 148 138 133 140 157 67 74 67 37 17 354 332 347 15 18 17 29 26 20 6 350 359 348 349 338 331 315 307 315 334 321 283 266 258 268
154 155 157 159 157 162 166 163 156 167 167 178 166 140 98 89 51 26 0 325 350 2 23 41 42 43 22 16 13 357 347 344 349 359 350 321 298 300 320 328 316 305 282
155 153 149 155 164 164 158 157 158 181 198 204 168 158 133 115 87 45 4 335 343 356 41 57 59 56 37 20 4 342 334 333 334 332 326 306 286 269 268 264 293 292 292
142 140 144 157 173 159 147 153 166 197 199 208 191 176 149 135 123 82 36 357 347 346 356 15 48 41 17 353 339 313 306 313 308 302 298 294 287 278 251 242 266 267 284
136 139 149 166 192 151 150 169 187 203 210 207 208 214 170 147 134 143 113 318 328 339 332 350 7 340 327 320 319 305 310 319 311 315 310 305 310 308 310 295 258 240 233
134 138 147 156 157 148 173 186 200 203 219 221 219 225 189 129 118 98 260 292 298 305 325 333 310 285 285 278 269 277 300 311 304 306 310 310 317 328 331 332 304 274 270
142 146 157 164 170 158 182 190 188 167 275 285 313 2 55 72 72 30 297 297 306 305 320 305 281 272 274 274 277 278 273 288 297 305 314 323 329 329 325 326 318 304 290
161 168 178 173 161 146 136 89 115 105 140 201 8 10 29 29 358 291 275 296 312 320 311 286 273 280 290 297 288 285 282 288 306 322 327 321 317 319 320 328 311 294 293
178 186 193 176 171 170 166 154 102 138 154 160 167 181 102 142 176 264 301 299 295 295 286 274 291 301 304 310 312 316 327 338 323 304 301 301 305 306 309 312 304 299 314
185 194 204 190 182 185 189 177 170 173 200 218 220 216 221 244 262 258 278 296 288 277 250 269 292 309 321 320 328 336 332 330 313 309 307 303 307 310 311 320 333 331 323
196 194 210 206 200 197 190 199 201 195 188 209 217 215 219 229 248 256 265 304 284 260 277 291 300 319 324 332 348 348 340 341 342 333 332 335 325 319 325 331 335 323 318
205 202 214 223 218 206 210 221 221 206 199 199 170 181 210 218 239 247 231 251 275 304 320 330 339 339 340 0 2 352 341 341 353 349 344 342 338 334 330 324 327 335 330
184 173 217 245 242 228 226 234 227 201 214 218 196 151 163 190 221 209 208 244 276 322 320 325 332 335 350 5 6 360 351 352 352 347 345 338 334 330 326 326 334 335 329
183 167 213 248 243 239 249 255 256 238 231 213 141 135 176 227 242 218 196 229 266 344 333 333 339 345 356 359 356 345 349 357 360 348 344 336 334 333 332 338 344 349 354
188 196 223 239 251 258 268 264 267 266 254 206 150 148 173 232 280 354 132 154 22 20 317 302 326 341 345 350 355 2 4 3 357 348 340 338 340 339 339 345 356 355 5
220 220 227 229 236 229 250 259 268 283 302 305 93 116 162 246 300 38 76 82 70 5 9 15 5 -0 15 17 25 37 26 9 354 348 341 341 339 333 333 343 353 1 7
236 237 246 244 228 238 248 257 270 284 301 322 5 87 162 226 324 41 49 73 77 49 59 61 29 4 18 25 40 54 48 14 343 339 333 315 309 314 329 341 346 347 353
261 250 246 243 244 252 251 252 265 281 300 320 336 32 23 27 91 79 39 41 33 27 21 33 38 17 19 34 52 55 61 48 21 339 319 312 304 304 313 317 325 335 338
262 261 252 240 246 250 252 247 251 251 243 235 147 189 242 139 197 100 103 94 30 39 52 54 39 36 33 58 72 80 92 65 23 337 310 302 306 315 327 322 318 327 333